Regional Weather Roundup
Issued by NWS Kansas City/Pleasant Hill, MO

Home | Current Version | Previous Version | Graphics & Text | Print | Product List | Glossary Off
Versions: 1 2 3 4 5 6 7 8 9 10 11 12 13 14 15 16 17 18 19 20 21 22 23 24 25 26 27 28 29 30 31 32 33 34 35 36 37 38 39 40 41 42 43 44 45 46 47 48 49 50

000
ASUS43 KEAX 200410
RWREAX

WEATHER ROUNDUP FOR EASTERN KANSAS AND NORTHWEST MISSOURI
NATIONAL WEATHER SERVICE KANSAS CITY/PLEASANT HILL MO
1000 PM CST SUN FEB 19 2017

KSZ040-057-103>105-MOZ028-029-037-043-200500-
...KANSAS CITY METROPOLITAN AREA...

CITY           SKY/WX    TMP DP  RH WIND       PRES   REMARKS
K.C. INTL      MOCLDY    59  52  77 S9        29.91R
K.C. DOWNTOWN  PTCLDY    67  53  61 S8        29.90S
LEES SUMMIT    CLEAR     66  55  67 S10       29.93R
OLATHE - IXD   CLEAR     61  52  72 SE9       29.91F
OLATHE - OJC   CLEAR     59  52  77 S5        29.90F
LAWRENCE       CLEAR     56  51  84 E7        29.89F

$$

MOZ001>008-011>017-020>025-030>033-038>040-044>046-053-054-200500-
...NORTHERN AND CENTRAL MISSOURI...

CITY           SKY/WX    TMP DP  RH WIND       PRES   REMARKS
ST. JOSEPH     CLOUDY    59  53  80 S9        29.89R
WARRENSBURG    CLEAR     63  54  72 SE12      29.93S
WHITEMAN AFB   PTCLDY    64  60  85 S12       29.93R
CLINTON        PTCLDY    64  55  72 SE10      29.95S
SEDALIA        MOCLDY    65  56  72 S17       29.97R
WARSAW         NOT AVBL
CHILLICOTHE      N/A     62  46  55 SE7       29.93R
KIRKSVILLE     MOCLDY    58  48  69 SE10      29.96S

$$

MOZ041-047>049-056>058-063>065-088>090-097-200500-
...EASTERN AND SOUTHERN MISSOURI...

CITY           SKY/WX    TMP DP  RH WIND       PRES   REMARKS
ST. LOUIS INTL MOCLDY    61  52  72 SE12      30.06S
SPIRIT OF STL  MOCLDY    62  52  69 SE5       30.04S
COLUMBIA       MOCLDY    64  55  72 S12       29.99R
JEFFERSON CITY PTCLDY    65  54  67 SE10      29.99S
ROLLA          PTCLDY    60  53  77 S9        30.02S
OSAGE BEACH    PTCLDY    62  56  80 S7        30.01R
SPRINGFIELD    CLEAR     62  55  77 SE16      29.98S
BRANSON        CLOUDY    61  57  88 SE12      30.02F
JOPLIN         MOCLDY    67  56  67 SE8       29.93S
WEST PLAINS    CLEAR     58  55  90 SE5       30.07R

$$

IAZ060-094-KSZ022-034>040-054-083-096-NEZ052-066-093-200500-
...KANSAS...SOUTHEAST NEBRASKA AND IOWA...

CITY           SKY/WX    TMP DP  RH WIND       PRES   REMARKS
TOPEKA         PTCLDY    57  52  83 E3        29.87F
MANHATTAN      PTCLDY    57  53  86 E3        29.84F
EMPORIA        CLOUDY    58  54  86 SE12      29.85F
CHANUTE        CLOUDY    62  56  80 E9        29.87F
WICHITA        TSTM      61  59  93 S8        29.82F FOG
OMAHA          PTCLDY    59  52  77 S15       29.84R
LINCOLN        CLOUDY    55  52  89 S13       29.82R
FALLS CITY     MOCLDY    58  53  84 S8        29.87R
LAMONI         CLOUDY    59  47  64 SE9       29.90R
DES MOINES     MOCLDY    61  46  57 SE10      29.89R

$$




USA.gov is the U.S. government's official web portal to all federal, state and local government web resources and services.